Flag for New Zealand Weather past 2 weeks in Palmerston North, New Zealand

Now
48 °F

Cool.


Feels Like: 45 °F
Forecast: 34 / 52 °F
Wind: 7 mph from South

Location: Wellington Airport

Current Time: Jul 24, 2014 at 1:01:46 AM

Latest Report: Jul 24, 2014 at 12:00 AM


Visibility: N/A

Pressure: 29.80 "Hg

Humidity: 76%

Dew point: 41 °F

Location of Palmerston NorthLocation

Historic Weather in Palmerston North — Graph

°F

Palmerston North temperature yesterday

Maximum temperature yesterday: 52 °F (at 3:30 PM)
Minimum temperature yesterday: 48 °F (at 12:00 AM)
Average temperature yesterday: 50 °F

Past Weeks' High & Low Weather Summary

 TemperatureHumidityPressure
High61 °F (Jul 10, 1:30 PM)100% (Jul 14, 3:00 PM)30.27 "Hg (Jul 14, 3:00 PM)
Low41 °F (Jul 16, 7:00 PM)55% (Jul 10, 1:30 PM)29.50 "Hg (Jul 21, 12:30 AM)
Average50 °F79%29.88 "Hg
* Reported Jul 8 11:00 PM — Jul 23 11:30 PM, Palmerston North, Weather by CustomWeather, © 2014

Note: Actual official high and low records may vary slightly from our data, if they occured in-between our weather recording intervals... More about our weather records

Advertising

Palmerston North weather history for previous 24 hours

 ConditionsComfort  
Time TempWeatherWind HumidityBarometerVisibility
11:30 PM
Jul 23
50 °FPassing clouds.9 mph76%29.80 "HgN/A
11:00 PM50 °FPassing clouds.12 mph76%29.80 "HgN/A
10:00 PM50 °FPassing clouds.12 mph76%29.80 "HgN/A
9:30 PM50 °FPassing clouds.13 mph76%29.80 "HgN/A
9:00 PM50 °FPartly cloudy.13 mph76%29.80 "HgN/A
8:30 PM50 °FPartly cloudy.14 mph76%29.80 "Hg6 mi
8:00 PM50 °FPartly cloudy.16 mph76%29.80 "HgN/A
6:00 PM50 °FMostly cloudy.20 mph76%29.77 "HgN/A
5:00 PM50 °FOvercast.20 mph82%29.77 "HgN/A
4:30 PM50 °FPassing clouds.23 mph82%29.77 "Hg6 mi
4:00 PM50 °FPartly sunny.24 mph82%29.77 "HgN/A
3:30 PM52 °FBroken clouds.23 mph82%29.74 "Hg5 mi
3:00 PM50 °FScattered clouds.25 mph88%29.74 "Hg5 mi
2:30 PM50 °FPartly sunny.26 mph88%29.74 "HgN/A
2:00 PM50 °FBroken clouds.26 mph82%29.74 "HgN/A
1:30 PM50 °FBroken clouds.29 mph88%29.74 "HgN/A
1:00 PM50 °FPartly sunny.29 mph88%29.74 "Hg5 mi
12:30 PM50 °FPartly sunny.30 mph88%29.74 "HgN/A
12:00 PM50 °FPartly sunny.28 mph88%29.77 "Hg5 mi
11:00 AM50 °FOvercast.32 mph88%29.77 "HgN/A
5:00 AM50 °FScattered showers. Passing clouds.35 mph76%29.68 "HgN/A
4:30 AM50 °FScattered showers. Passing clouds.35 mph76%29.68 "HgN/A
4:00 AM50 °FScattered showers. Passing clouds.35 mph76%29.68 "HgN/A
3:30 AM50 °FLight rain. Partly cloudy.36 mph76%29.68 "Hg4 mi
3:00 AM50 °FLight rain. Mostly cloudy.32 mph76%29.68 "Hg4 mi
2:30 AM50 °FSprinkles. Passing clouds.31 mph76%29.68 "Hg6 mi
2:00 AM50 °FDrizzle. Overcast.25 mph71%29.68 "HgN/A
1:30 AM48 °FSprinkles. Overcast.20 mph76%29.68 "HgN/A
1:00 AM48 °FSprinkles. Passing clouds.16 mph76%29.68 "HgN/A
Weather by CustomWeather, © 2014

See weather overviewHow to use our weather pages